GEFSMA_500_meanwind_138.txt.gz
Wind_Speed
14 14 14 14 15 14 13 12 10 8 6 5 3 2 2 3 5 7 9 10 10 12 12 13 13 13 14 14 14 14 14 13 13 13 13 13 13 13 14 17 19 20 19
14 15 14 15 15 14 14 13 11 9 7 6 4 2 1 2 4 6 8 9 10 11 12 12 13 13 14 14 14 13 13 13 14 13 13 13 14 14 16 18 19 20 19
14 15 15 15 15 15 14 13 12 10 8 6 4 2 0 1 3 5 7 8 9 10 11 12 13 14 14 14 14 14 13 13 14 15 14 14 14 16 18 19 19 20 20
14 15 15 15 16 16 15 14 13 12 9 7 5 4 2 1 2 4 6 7 8 9 11 11 13 13 13 13 13 14 15 14 14 15 14 15 15 16 18 20 20 20 20
14 15 15 15 16 16 16 15 15 13 11 9 7 5 3 2 2 3 5 6 7 8 10 11 12 13 12 12 12 13 15 15 14 14 15 15 17 18 18 19 20 19 20
14 15 16 15 16 17 17 16 16 14 13 11 9 7 5 3 3 3 4 5 6 8 10 11 12 13 12 12 11 13 15 15 15 14 15 16 16 18 18 19 19 18 19
14 15 16 16 17 17 18 17 17 15 14 13 11 9 6 4 3 3 4 4 5 7 9 10 11 12 12 12 12 13 14 14 15 15 16 16 16 17 18 18 19 19 19
13 14 15 16 17 17 18 18 17 16 14 13 12 10 8 6 4 3 3 4 5 6 7 9 10 12 12 12 13 13 14 15 15 16 17 17 17 17 17 18 18 19 21
13 13 14 15 16 17 18 18 17 17 16 14 13 11 9 7 5 3 2 2 4 5 6 8 9 10 12 13 14 14 14 15 15 16 17 18 18 19 19 19 19 20 21
12 13 13 14 15 16 17 18 17 17 16 15 14 12 10 8 6 5 3 2 2 3 5 7 8 10 11 12 13 13 15 15 16 16 18 18 19 19 20 20 20 20 20
11 12 13 14 15 15 16 17 17 16 16 15 15 13 12 10 8 6 5 3 2 1 3 5 7 8 10 12 12 12 14 15 16 16 17 18 19 20 20 20 21 21 21
11 12 13 13 14 14 15 16 16 16 15 15 15 13 12 11 9 7 5 4 3 1 1 3 5 7 9 10 12 13 14 15 16 17 17 18 20 20 20 20 20 21 22
11 12 12 13 14 14 14 14 14 14 14 14 14 13 12 11 10 8 6 6 4 2 2 3 5 6 7 9 11 12 14 15 17 17 18 19 20 21 21 22 21 22 23
10 11 12 13 14 13 13 13 13 13 13 13 14 13 12 11 10 9 7 6 5 4 3 3 4 6 7 9 11 12 14 15 17 18 19 20 21 22 22 23 24 24 25
9 10 11 12 13 13 13 13 13 13 13 12 12 12 12 11 10 9 8 7 6 5 5 5 6 7 8 9 11 13 14 16 17 18 20 20 21 23 24 24 25 25 26
8 9 10 11 13 13 13 13 13 13 12 12 11 11 12 11 10 9 8 8 7 7 7 7 8 9 10 10 11 13 14 15 17 19 20 22 23 24 25 26 26 27 27
8 8 9 11 12 13 13 13 13 13 13 12 11 11 11 11 10 10 10 9 9 9 9 9 10 11 12 13 13 15 16 17 18 19 21 22 24 25 26 27 28 29 29
8 9 10 11 11 12 12 13 13 14 14 13 13 12 12 11 11 11 11 11 12 12 12 12 13 13 15 16 17 17 18 20 20 21 22 24 25 26 28 28 29 29 30
9 10 12 12 12 12 13 13 14 14 15 15 15 14 14 13 13 13 13 14 14 15 15 16 16 17 18 19 19 20 21 22 24 24 25 26 27 29 30 30 31 31 32
12 12 13 13 13 13 14 15 15 16 17 17 17 17 17 16 16 16 16 17 17 18 19 19 20 21 22 22 23 23 24 25 26 27 28 28 29 31 32 32 33 34 34
13 14 14 14 15 15 16 17 18 19 19 19 19 20 20 19 19 19 20 20 21 22 23 24 24 25 26 27 27 28 28 29 29 30 31 31 32 33 34 35 35 36 36
15 16 16 17 17 18 19 20 21 21 22 22 22 23 23 22 22 23 23 24 25 25 26 27 28 29 30 30 31 32 32 33 33 33 34 34 35 35 36 37 38 38 39
18 18 19 20 20 21 22 22 23 24 24 25 25 25 26 26 26 26 27 28 29 30 31 32 33 34 34 34 35 35 36 37 36 36 36 36 37 37 38 39 40 41 42
20 21 21 23 24 24 25 25 26 27 27 27 28 28 28 28 29 30 31 32 33 34 35 36 38 38 39 40 40 41 41 40 40 40 40 40 40 40 40 41 42 43 44
22 23 24 25 26 27 27 28 29 29 30 30 31 31 31 32 32 33 34 35 36 37 38 40 41 42 43 44 45 45 45 45 44 44 45 45 44 44 44 44 45 45 46
25 26 26 27 28 29 30 31 32 32 33 34 34 34 34 35 36 36 37 38 39 40 41 42 44 45 46 48 48 49 49 48 48 48 49 49 49 49 48 48 48 48 49

GEFSMA_500_meanwind_144.txt.gz
Wind_Speed
13 14 15 15 15 14 13 11 9 7 5 3 1 1 3 4 5 5 5 5 6 8 8 9 10 10 11 11 11 11 11 10 9 10 11 12 12 13 13 14 14 15 15
14 14 15 15 15 15 15 13 10 9 6 4 3 2 2 3 4 4 4 5 6 7 7 8 9 10 10 10 11 12 11 11 11 10 11 11 12 13 13 14 15 16 17
14 14 15 15 16 16 16 15 13 11 8 6 4 3 3 3 3 4 4 4 6 6 7 7 7 8 9 10 10 11 12 11 11 11 11 12 12 12 12 12 14 17 17
14 15 15 16 16 17 16 15 14 13 10 8 6 5 4 3 3 3 3 4 5 5 6 6 6 7 8 8 9 10 10 10 11 11 11 11 10 10 10 11 14 17 17
14 15 15 16 16 17 17 16 14 13 12 10 8 7 6 5 4 4 3 3 4 5 5 5 5 6 6 7 9 9 10 10 10 10 10 11 10 9 10 11 14 16 17
14 14 15 16 16 17 17 16 15 14 13 11 10 8 7 6 6 4 3 3 3 4 4 4 4 5 6 7 8 8 8 9 9 9 9 10 10 10 10 12 14 15 16
14 15 15 16 16 17 17 17 16 15 13 12 11 9 8 7 6 5 4 3 3 2 3 3 3 4 5 6 7 7 7 8 8 9 9 9 9 9 10 12 14 16 16
14 14 15 16 16 17 17 17 16 15 14 13 11 10 9 9 7 6 5 4 3 2 2 2 2 3 3 4 5 6 7 8 8 8 10 10 10 10 10 12 14 15 17
13 14 15 15 16 16 16 16 16 15 14 13 12 11 9 9 8 7 5 4 4 3 2 2 1 1 2 3 4 4 6 8 8 9 10 10 10 11 12 13 14 15 16
12 13 14 14 15 16 16 16 16 15 14 12 11 11 10 9 8 8 7 6 4 3 3 1 0 1 2 3 4 5 6 7 8 9 10 11 11 12 13 14 15 15 16
11 12 13 14 14 15 16 16 16 15 14 13 12 11 10 9 8 8 8 7 6 4 3 2 1 1 2 3 4 5 5 7 8 9 10 11 12 13 14 15 16 17 18
11 12 13 13 14 14 15 15 16 15 14 14 13 11 11 10 8 8 7 7 6 5 3 3 2 2 3 4 5 5 6 7 8 9 10 11 12 13 14 16 17 18 19
10 11 12 12 13 13 14 14 15 14 14 13 12 11 10 10 9 8 7 7 6 6 5 4 3 4 5 5 6 6 7 8 9 10 11 11 12 14 15 16 17 19 20
9 10 11 11 12 13 13 13 13 13 13 12 12 11 10 10 9 9 8 8 7 6 6 5 5 5 6 7 8 8 8 9 10 11 12 13 13 14 15 16 17 18 19
8 9 10 11 11 12 12 12 12 12 12 12 11 11 10 9 9 9 8 8 8 7 7 7 7 7 7 8 9 9 10 11 11 12 13 14 14 16 17 17 18 19 21
7 8 10 11 11 11 12 12 12 12 11 11 11 11 10 10 10 9 9 8 8 8 8 8 8 8 9 10 10 11 11 12 13 13 14 15 16 17 18 19 19 20 22
7 8 9 10 11 11 12 11 11 11 11 11 11 11 11 11 11 11 10 10 9 10 10 10 10 11 12 12 12 13 13 14 14 15 16 17 18 19 20 21 21 22 23
7 8 9 10 11 12 12 11 11 12 12 12 12 12 12 13 13 13 12 12 12 12 13 13 14 14 15 15 16 16 16 17 17 18 19 19 20 21 22 23 24 25 26
8 9 10 11 11 12 12 12 12 12 12 13 13 13 14 14 14 14 14 14 15 15 16 16 17 17 18 18 19 19 20 20 21 21 22 22 23 23 24 25 26 27 28
10 10 11 12 12 12 13 13 13 14 14 15 15 16 16 16 16 16 16 17 17 18 18 19 19 20 20 21 21 22 23 23 24 24 25 25 26 26 27 28 29 29 30
12 12 13 13 13 13 14 15 15 16 17 18 18 18 18 18 18 19 19 20 20 21 21 22 22 23 23 24 24 25 25 26 27 28 28 28 29 30 30 31 32 32 32
14 14 15 15 15 15 16 17 18 18 19 20 20 20 21 21 21 21 22 23 23 23 24 24 25 25 26 27 27 28 29 29 30 30 31 32 32 33 33 34 34 35 35
16 16 16 17 17 18 18 19 20 21 21 22 22 23 23 23 24 24 25 25 26 26 26 27 28 28 29 30 31 31 32 33 34 35 35 36 36 37 37 38 38 39 40
17 18 18 19 19 20 20 21 22 23 24 24 25 25 26 26 26 27 27 28 28 28 29 30 30 32 32 33 34 35 36 36 37 39 40 40 41 42 42 44 44 44 44
19 20 20 21 21 22 23 23 25 26 27 27 27 28 28 29 29 30 30 30 31 31 32 32 33 34 35 37 38 39 40 41 41 43 45 46 46 47 47 48 49 49 49
21 22 23 23 23 24 25 26 28 29 29 29 30 30 31 32 32 32 32 32 33 33 34 35 36 37 38 40 41 43 44 45 46 47 49 50 51 52 51 51 52 53 53

GEFSMA_500_meanwind_150.txt.gz
Wind_Speed
13 14 14 14 14 12 11 9 7 4 3 2 3 4 5 6 7 7 7 8 8 9 10 11 11 11 11 11 11 10 10 10 10 10 11 12 14 14 13 13 13 12 13
14 15 15 15 14 13 12 10 8 6 5 3 3 4 5 5 5 6 6 7 7 8 9 10 10 10 11 11 10 10 10 10 10 9 10 11 12 13 14 13 14 14 13
15 15 15 16 15 14 13 11 10 8 6 5 5 5 5 5 5 6 6 6 6 7 8 9 9 10 10 10 10 9 9 9 9 9 9 9 11 13 13 13 14 15 15
15 15 16 16 16 16 15 13 11 10 8 7 7 6 6 6 6 6 6 6 6 7 7 8 8 8 9 10 10 9 8 8 8 9 9 9 10 11 12 13 14 16 16
15 16 16 16 16 16 15 14 13 12 11 9 8 8 7 7 7 7 6 6 7 7 7 7 7 7 7 8 8 8 7 8 8 8 8 8 9 10 11 12 13 14 17
14 15 16 16 16 16 15 14 14 13 12 11 10 9 8 7 7 7 7 7 7 6 6 6 6 6 6 6 6 6 7 7 8 8 8 7 7 8 9 11 12 13 16
14 15 15 16 16 16 15 14 14 14 13 12 11 10 9 8 7 7 7 7 6 5 5 6 5 5 5 5 5 5 6 7 8 8 8 7 7 7 7 8 10 12 15
14 14 15 15 15 15 15 14 14 13 13 12 11 10 9 8 8 7 7 7 6 5 4 4 4 4 4 4 4 4 5 6 6 7 7 7 7 7 6 6 8 11 14
13 14 14 15 15 15 15 14 13 13 12 12 11 11 10 9 8 8 7 7 6 5 4 4 4 3 3 3 3 3 4 4 5 6 7 7 7 6 7 7 8 10 12
12 13 14 14 14 15 14 13 13 12 12 11 11 10 10 10 9 8 8 7 6 5 5 4 4 3 3 2 2 2 3 4 6 6 6 7 7 7 8 8 9 10 12
10 11 12 13 13 14 14 13 13 12 11 10 9 9 8 8 8 8 7 7 6 5 5 4 3 3 2 2 1 1 2 3 5 6 6 7 7 8 8 9 10 11 13
8 10 11 12 13 13 13 13 12 12 11 10 9 8 8 7 7 7 6 6 5 4 4 4 3 3 2 2 1 1 2 3 4 4 6 7 8 9 9 10 11 12 13
7 8 9 10 11 12 13 13 12 12 11 10 9 8 8 7 6 6 5 4 4 3 3 3 2 2 2 1 1 2 2 3 4 5 6 7 9 10 10 11 12 14 15
6 7 8 9 9 11 11 12 12 11 10 10 9 8 7 7 6 5 4 4 4 3 2 2 2 2 3 2 3 3 4 4 6 7 7 9 10 11 12 13 13 15 16
5 6 7 8 8 9 10 11 11 10 9 8 8 7 7 6 5 4 3 4 3 3 3 4 4 5 5 5 6 6 6 7 7 8 9 10 10 12 13 14 15 16 18
3 4 5 6 7 8 8 9 9 9 8 8 8 8 7 6 5 5 4 4 4 5 5 6 6 6 7 7 8 8 8 9 10 10 11 12 12 13 14 15 17 18 19
3 3 4 5 6 6 6 7 7 7 7 7 7 7 7 7 7 6 6 6 7 7 7 8 8 9 9 10 10 11 11 12 12 13 13 14 15 16 16 17 18 20 21
3 4 4 5 6 6 6 7 7 7 7 7 8 8 8 8 8 8 8 8 8 9 10 10 10 11 12 12 12 13 14 15 15 16 16 17 17 18 19 20 21 22 23
5 5 5 6 6 7 7 7 8 8 8 8 9 9 10 10 10 10 10 10 10 11 12 12 13 14 14 15 15 16 16 17 18 18 19 19 20 21 21 22 23 24 25
7 7 7 7 8 8 8 8 8 9 10 10 11 11 12 12 12 12 12 13 13 13 14 14 15 15 16 17 18 18 19 19 20 21 22 23 23 24 24 25 26 27 27
9 9 9 9 10 10 10 10 11 11 11 12 12 13 14 14 14 14 15 15 16 16 17 17 17 18 19 20 20 21 22 22 23 24 24 25 26 27 27 28 29 29 30
11 11 12 12 12 12 12 12 13 13 14 14 14 15 15 16 16 17 17 18 19 19 20 20 21 21 21 22 23 24 24 25 26 27 27 28 29 30 31 32 33 33 34
13 13 14 14 14 14 14 14 14 15 15 15 16 17 18 18 19 20 21 21 22 22 23 23 23 24 24 25 26 27 27 28 29 30 30 31 32 33 34 35 36 37 38
16 16 16 16 16 16 16 17 17 17 17 18 19 20 21 21 22 23 23 24 24 25 25 26 26 26 27 28 29 29 30 31 32 33 33 34 35 37 38 39 40 42 43
18 17 17 17 18 18 19 19 19 20 20 21 22 22 23 24 24 25 25 26 26 27 27 28 29 30 30 31 32 32 33 34 35 36 37 38 39 40 41 43 44 46 48
19 19 19 20 20 21 21 21 21 22 23 23 24 25 25 26 27 28 29 29 30 30 30 32 32 33 33 34 35 36 37 38 38 39 40 41 42 43 44 46 48 51 53

GEFSMA_500_meanwind_156.txt.gz
Wind_Speed
14 14 13 13 12 10 9 7 5 3 3 3 4 5 6 7 7 7 8 8 8 8 8 9 9 9 10 12 12 12 11 10 11 11 10 11 10 10 10 10 10 11 11
15 15 14 14 13 11 10 8 7 6 5 4 5 6 6 7 7 7 8 7 8 8 8 7 8 8 9 11 12 11 11 10 10 10 11 10 10 10 11 11 11 11 11
15 15 15 15 14 13 12 10 9 8 7 6 6 6 7 7 7 7 7 7 7 7 7 7 8 8 9 10 11 11 10 10 10 10 10 10 10 11 11 12 12 12 12
15 16 16 15 15 14 13 11 10 10 9 8 7 7 7 7 7 7 7 6 6 6 7 7 7 8 9 9 10 10 10 10 10 10 10 10 10 11 12 13 14 14 14
15 15 16 16 15 14 13 12 11 10 9 9 8 8 8 8 7 7 7 6 6 5 6 6 6 7 8 8 9 10 9 9 9 9 10 10 10 11 12 13 14 15 15
15 15 15 16 16 15 14 13 12 11 11 10 9 8 8 8 8 7 7 6 5 5 5 5 5 5 5 7 8 9 9 9 9 9 9 9 9 9 10 11 12 13 14
14 15 15 15 15 15 14 13 13 12 12 11 10 9 8 8 8 7 7 6 5 5 4 4 4 4 4 5 6 7 8 9 8 9 9 8 8 7 8 9 10 11 12
12 13 14 14 15 14 14 13 13 13 12 11 11 10 9 8 8 7 6 5 5 4 3 3 3 3 3 4 5 5 6 7 8 8 8 8 8 7 7 8 9 10 11
11 12 13 14 14 14 13 12 12 11 11 10 10 10 9 9 8 7 6 5 5 4 3 3 3 3 3 3 3 4 4 5 7 7 8 8 8 7 7 7 8 9 11
10 11 12 12 13 13 12 12 11 11 10 10 9 9 8 7 7 7 6 5 5 4 4 3 3 3 2 1 1 2 3 4 5 6 7 7 7 8 8 8 8 9 9
8 9 10 11 12 12 11 11 11 10 10 9 8 7 7 6 6 6 6 6 5 4 3 3 2 2 2 1 1 1 2 3 3 4 5 6 7 7 8 8 9 9 10
7 7 8 10 10 10 10 10 10 10 9 8 7 6 6 6 6 5 4 4 3 3 3 2 2 1 1 1 1 2 3 3 3 4 5 6 7 7 8 8 9 10 11
5 6 7 8 9 9 9 9 9 10 9 8 7 7 6 6 5 5 4 3 2 1 0 1 1 1 1 2 2 3 4 4 5 6 7 7 8 9 9 10 11 12 13
4 4 5 6 7 8 8 9 9 9 8 8 7 7 6 5 4 4 3 3 2 1 2 2 3 3 3 4 4 4 5 6 7 7 8 9 9 10 11 12 13 13 14
3 3 4 5 6 7 7 7 8 8 8 8 7 6 5 5 4 4 4 4 3 3 3 4 4 5 5 5 5 6 7 7 8 9 10 10 10 11 11 12 13 14 14
2 3 3 4 5 5 6 6 7 7 7 7 7 6 5 5 5 5 5 5 5 4 5 5 6 6 7 7 8 8 9 10 10 11 11 12 12 12 12 13 14 15 16
3 3 4 4 5 5 5 6 6 6 6 6 6 6 6 5 6 6 6 6 6 6 7 7 8 8 9 10 10 11 12 12 12 13 14 14 15 15 16 15 15 16 17
5 5 5 5 5 6 6 6 6 6 6 6 6 7 7 7 7 7 8 8 8 8 8 9 9 10 11 11 12 14 14 15 15 15 16 16 17 18 18 19 19 19 19
7 6 7 7 7 7 7 7 7 7 7 8 8 8 8 8 9 9 10 10 10 10 10 11 12 13 13 14 15 15 16 17 17 18 18 19 19 20 21 22 22 22 23
8 8 8 8 8 8 8 8 9 9 9 9 9 10 10 10 11 11 12 12 12 13 13 14 14 15 16 16 17 18 19 20 20 20 20 21 22 22 23 24 24 25 26
10 10 9 10 10 10 10 10 10 11 11 11 11 11 12 13 13 14 14 15 15 16 16 17 17 17 18 19 19 20 21 22 23 23 24 24 25 26 26 27 28 29 30
13 12 12 12 12 12 12 12 12 13 13 13 13 14 14 15 15 16 16 17 17 18 18 19 20 20 21 21 22 23 24 25 25 26 27 27 28 29 30 31 31 32 33
15 15 15 15 14 14 14 14 14 14 15 16 16 16 17 17 18 18 18 19 19 20 21 21 22 23 23 24 25 26 27 27 28 28 29 30 31 32 33 35 35 36 37
17 17 17 16 16 16 16 16 16 17 17 18 18 18 19 19 20 20 21 21 22 23 23 24 25 25 26 27 27 28 29 29 30 31 32 32 33 34 35 37 38 39 40
19 19 18 18 18 18 18 19 19 19 19 20 20 21 22 22 23 23 24 24 25 26 26 27 28 28 29 29 30 31 31 32 33 34 35 36 37 38 38 40 41 42 43
21 21 20 20 20 20 21 21 21 21 22 22 23 23 24 25 26 26 27 28 28 29 30 31 31 31 32 33 33 34 35 36 36 37 38 40 41 42 42 43 44 46 47

GEFSMA_500_meanwind_162.txt.gz
Wind_Speed
11 11 10 9 8 6 4 3 3 3 5 7 8 9 9 10 10 11 10 11 11 10 10 10 11 11 12 12 13 13 14 14 14 13 13 13 13 13 13 13 12 12 12
12 12 11 10 9 7 6 5 4 4 5 6 8 9 9 9 10 10 10 10 10 10 10 10 10 10 11 12 13 14 14 14 14 13 12 13 13 12 13 13 13 13 13
12 12 11 10 10 9 7 6 6 6 6 6 7 8 9 9 9 9 9 9 9 9 9 9 9 10 11 11 12 12 13 14 14 13 12 13 13 12 12 13 13 14 14
12 12 12 11 10 10 9 8 7 7 6 6 7 8 8 8 9 8 9 9 9 9 9 9 9 9 9 10 11 12 13 13 13 13 12 12 12 12 12 13 13 13 14
12 12 12 11 11 10 10 9 8 8 7 7 7 8 8 8 8 8 8 8 8 9 9 10 9 8 9 9 10 11 11 12 12 11 12 12 12 12 11 12 13 13 13
11 12 12 12 11 11 10 10 9 9 8 8 8 8 8 8 7 8 7 7 7 7 8 8 8 8 8 8 9 10 10 10 11 11 12 12 11 11 11 11 11 12 14
11 11 12 12 11 11 11 10 10 9 9 9 8 8 8 7 7 7 7 6 6 6 6 6 7 7 7 8 8 8 8 9 10 10 11 11 11 11 11 12 12 13 14
10 11 11 11 11 11 11 10 10 10 9 8 8 7 7 7 6 6 6 5 5 5 5 6 6 6 7 7 7 7 8 9 10 10 10 11 11 11 12 12 13 13 14
9 10 10 11 11 11 11 10 10 9 8 7 7 7 7 6 5 5 5 5 4 4 4 4 5 5 5 5 6 7 8 8 8 9 10 11 11 12 12 13 13 14 14
8 8 9 10 10 10 10 9 9 9 7 7 6 6 6 6 5 5 5 4 4 4 4 3 4 5 5 5 5 5 5 6 6 7 8 10 10 11 12 13 13 15 16
7 7 8 8 9 10 10 9 8 8 7 7 6 6 5 5 4 4 4 4 4 4 3 3 3 4 4 4 4 5 5 6 6 7 8 9 10 11 11 13 14 15 15
5 6 6 7 8 8 8 8 8 8 7 6 6 5 5 4 4 3 3 4 4 4 3 3 4 4 4 4 4 4 5 6 7 8 8 9 10 10 11 13 13 14 14
3 4 5 6 6 7 7 7 7 7 7 6 5 5 4 3 3 2 2 2 3 3 3 3 4 4 5 5 5 5 5 6 7 8 9 10 11 11 11 12 13 14 14
2 3 4 4 5 5 6 6 6 6 6 6 5 4 3 2 2 2 1 1 1 2 3 4 5 5 5 6 7 7 7 7 8 9 10 11 12 12 12 13 13 14 13
1 2 3 3 4 4 4 4 4 4 4 4 4 4 2 2 1 1 2 2 2 3 4 5 5 6 8 8 9 9 9 9 9 10 11 12 13 13 14 14 14 14 15
1 1 2 2 3 3 4 4 4 3 3 3 3 3 2 2 3 3 4 4 4 5 6 7 7 8 8 9 9 10 10 11 11 12 12 13 14 14 15 15 16 17 16
3 3 3 3 3 4 4 4 4 4 3 4 3 3 3 4 5 5 5 5 6 6 7 8 9 9 10 10 10 10 11 12 12 13 14 14 15 15 15 16 17 18 18
5 5 5 5 5 5 5 5 5 5 5 5 5 5 6 6 6 7 6 7 7 8 9 10 10 10 10 11 11 12 13 13 14 15 16 16 17 18 18 18 18 19 19
7 6 6 6 6 6 6 6 6 6 6 6 7 7 7 7 8 8 8 9 9 10 11 11 11 11 11 12 13 14 15 16 16 17 18 18 19 20 20 21 21 22 22
8 8 8 8 8 8 8 8 8 7 7 8 8 8 9 9 9 9 10 10 11 12 12 13 12 12 13 14 15 16 17 18 18 20 20 21 22 23 23 24 24 25 26
10 10 10 10 10 10 10 10 9 9 9 9 9 10 10 10 10 11 12 12 13 14 14 14 14 14 15 16 16 18 18 19 21 22 23 24 25 26 27 27 27 27 29
12 12 12 12 12 12 12 11 11 11 11 12 12 12 12 12 12 13 14 15 15 16 16 16 16 17 18 19 19 20 21 22 23 24 25 26 27 28 29 30 30 30 31
14 14 14 14 14 14 14 14 13 13 14 14 14 14 14 14 15 16 17 17 18 18 19 19 19 20 21 22 23 23 24 25 26 27 28 29 30 31 32 32 33 34 35
16 16 16 16 16 16 16 16 16 16 16 16 16 16 17 17 18 19 19 20 20 20 21 21 22 23 24 25 26 27 28 29 30 31 31 32 32 34 35 36 37 37 38
18 18 18 18 18 18 18 18 18 18 19 19 19 19 20 20 21 21 22 22 23 23 24 25 26 27 27 28 29 30 31 32 33 34 35 36 36 37 38 39 40 41 41
20 20 19 19 19 20 20 20 20 21 21 21 22 22 23 23 24 24 24 25 26 26 27 28 29 30 31 32 33 34 35 35 36 37 38 39 40 40 40 41 42 43 44

GEFSMA_500_meanwind_168.txt.gz
Wind_Speed
10 11 11 10 9 6 5 3 1 2 4 5 6 7 7 7 8 8 8 8 9 9 10 9 9 9 9 10 11 11 11 11 11 11 11 11 11 11 11 10 10 10 10
10 11 11 10 9 7 5 4 2 1 3 4 5 6 6 7 7 8 8 8 9 9 9 9 8 8 8 10 10 10 10 10 10 11 11 11 10 11 11 11 10 11 11
10 11 11 11 9 8 6 5 4 2 2 3 4 5 6 6 7 8 8 8 8 8 8 8 8 8 8 9 10 10 10 10 10 10 11 11 11 11 11 11 11 11 12
10 10 11 11 10 9 7 6 5 4 3 3 3 4 5 6 7 8 8 8 8 7 7 7 7 7 8 9 9 10 10 10 10 10 11 11 11 11 11 12 11 11 12
10 10 11 11 10 9 8 7 6 5 5 4 3 4 5 5 6 6 7 7 7 7 6 7 7 7 7 8 9 9 9 10 10 10 10 11 11 11 10 11 11 12 12
10 10 10 11 10 9 9 8 7 6 5 5 4 4 4 4 5 5 6 6 6 6 6 6 6 7 6 7 7 8 8 9 9 9 10 10 10 10 9 10 10 11 11
9 9 10 10 10 10 9 8 7 7 6 5 5 4 3 3 4 4 4 4 4 5 5 5 6 6 6 7 7 7 8 7 7 8 9 10 10 10 9 10 10 10 11
9 9 9 9 9 9 9 8 8 7 6 5 4 4 3 3 3 3 3 3 3 4 4 4 5 5 5 5 6 7 7 7 7 8 8 9 9 9 9 10 10 10 11
8 8 8 8 8 9 9 8 8 7 7 6 4 4 3 3 3 3 3 2 2 2 2 2 3 3 4 4 5 6 7 7 8 8 8 8 8 9 9 10 10 10 11
7 8 8 8 8 8 8 8 7 7 7 6 5 4 3 3 2 2 2 2 1 1 1 1 2 2 2 3 3 5 6 6 6 6 6 7 7 8 9 10 11 11 11
5 6 7 7 7 7 7 8 7 6 6 6 5 4 3 2 2 1 1 1 1 1 2 2 2 2 3 3 3 4 4 5 5 6 6 7 7 8 9 10 12 12 12
4 5 6 6 6 7 7 7 7 7 6 5 4 4 3 2 2 1 1 1 1 2 2 2 3 3 4 4 4 4 4 4 5 6 7 8 8 10 11 11 12 13 13
3 4 5 5 5 6 6 6 6 6 6 6 5 4 3 2 2 2 2 3 3 3 3 3 3 4 5 6 6 6 6 7 7 7 8 9 9 10 11 11 12 13 13
3 4 4 4 5 5 6 6 6 6 6 5 4 3 3 3 3 4 3 4 4 4 4 5 5 6 6 6 7 8 9 9 10 10 10 11 11 11 12 13 13 14 14
2 3 4 4 4 5 5 6 6 6 5 5 4 4 4 4 4 5 4 4 4 5 5 6 7 7 8 8 8 9 10 10 11 11 12 12 13 13 14 14 15 15 15
2 3 3 4 4 4 5 5 5 6 6 5 5 5 6 6 6 6 6 6 6 6 7 8 8 8 9 9 10 11 11 11 11 12 12 13 13 14 14 15 15 16 16
3 3 4 4 4 4 5 5 6 6 6 6 6 7 7 7 7 7 7 8 8 7 8 8 9 9 10 11 12 12 12 12 13 13 13 14 15 15 16 17 17 18 18
5 5 5 5 5 6 6 6 6 7 7 7 7 7 7 7 7 8 8 8 8 8 8 8 9 10 11 11 12 13 13 13 14 14 15 16 16 17 18 19 19 20 20
7 6 7 7 7 7 7 7 8 8 8 8 8 8 8 8 8 8 9 9 9 9 9 10 10 10 11 12 13 13 14 14 15 16 16 17 18 19 20 21 21 22 22
8 8 8 9 9 9 9 9 9 9 9 9 9 9 9 9 9 10 10 10 10 11 11 11 11 12 13 13 14 14 15 16 17 18 19 20 21 22 23 24 25 25 25
10 10 10 10 10 10 10 11 10 10 10 11 11 11 11 11 11 12 11 12 12 13 13 14 14 15 15 16 17 17 18 19 20 21 22 23 23 24 25 27 28 28 28
12 12 12 12 12 12 12 12 12 12 12 12 12 12 12 13 13 13 14 14 15 15 16 17 17 18 18 19 19 20 20 21 22 24 25 25 26 27 28 29 30 31 31
14 14 14 14 14 14 14 14 14 14 14 14 15 15 15 15 16 16 16 17 18 18 18 19 20 20 21 22 22 23 24 24 25 27 27 28 30 31 31 32 33 33 33
16 16 15 15 15 16 16 16 16 16 16 17 17 17 18 18 18 18 19 20 20 21 22 22 23 23 23 25 26 26 27 28 29 30 31 32 32 33 34 35 35 36 36
17 17 17 16 17 17 18 18 18 18 18 18 19 19 20 20 21 21 21 22 23 24 25 26 26 26 27 28 30 30 31 31 32 33 35 35 35 36 37 37 38 38 39
18 17 17 17 17 18 18 19 19 20 20 21 21 21 22 22 23 23 23 24 25 26 27 28 29 30 31 31 32 34 34 35 35 35 36 37 38 38 38 39 40 41 41

GEFSMA_500_meanwind_174.txt.gz
Wind_Speed
9 9 8 7 6 5 4 2 1 2 4 5 5 6 7 7 8 8 9 9 8 8 9 9 9 9 9 9 9 9 10 10 10 10 10 10 9 9 9 9 9 10 9
9 8 8 8 7 6 5 4 3 2 4 4 5 5 6 7 7 8 9 9 9 9 8 8 8 8 8 9 9 9 9 10 10 10 10 10 10 10 10 10 10 10 9
8 9 8 8 7 7 6 5 4 2 3 3 4 5 6 6 8 8 9 9 9 9 9 8 7 8 8 9 9 9 9 9 9 10 10 10 10 11 11 10 10 10 10
8 8 8 8 8 7 6 5 4 3 3 3 3 4 5 6 7 7 8 8 9 9 8 8 7 7 8 8 9 9 9 9 9 9 9 10 10 10 11 11 11 11 11
8 8 8 8 8 7 7 6 5 4 4 3 3 3 4 5 6 7 7 8 8 8 8 7 7 7 7 8 9 9 9 8 8 8 9 10 10 10 10 11 11 11 11
8 8 8 8 7 7 7 6 5 5 4 3 3 3 3 4 5 6 7 7 8 7 7 7 7 7 6 8 8 8 8 8 8 8 9 9 9 10 10 10 10 10 10
7 7 7 8 8 7 7 6 6 5 5 4 3 3 3 3 4 5 6 6 7 7 6 6 6 6 5 6 7 8 8 8 8 8 8 8 9 9 9 10 10 10 10
6 6 7 7 7 7 7 6 6 5 4 4 3 3 3 3 3 4 4 5 6 6 5 5 6 6 5 5 6 6 7 7 8 8 8 8 9 8 9 10 10 10 9
6 6 7 7 7 7 7 7 6 5 4 4 3 2 3 3 4 4 4 5 5 5 5 5 5 5 5 5 6 6 6 6 7 8 9 8 8 7 8 8 9 10 10
5 6 6 7 7 6 6 6 6 5 5 4 3 3 3 4 4 4 4 4 4 4 4 5 5 5 5 6 6 6 6 6 7 8 8 8 8 8 8 9 10 10 11
5 5 6 6 6 6 6 6 5 5 5 5 4 3 3 3 3 3 3 3 3 3 4 4 5 5 6 6 6 6 7 6 6 6 7 8 8 8 9 9 10 10 11
4 5 5 6 6 7 7 6 6 6 6 5 4 3 3 3 3 2 2 3 3 4 4 5 5 5 6 6 6 6 7 7 7 7 8 8 9 9 10 11 11 12 12
4 5 5 5 5 6 6 6 6 6 6 5 5 4 3 2 1 1 2 3 4 5 5 5 5 6 7 7 7 7 8 9 9 9 10 10 11 11 12 12 12 13 14
2 3 4 4 5 5 5 5 5 5 5 4 4 3 2 1 1 2 3 4 4 4 5 5 6 7 8 8 9 9 9 10 11 11 11 12 12 12 13 13 13 14 14
1 2 2 3 4 4 4 4 4 4 4 3 3 3 2 2 3 3 3 3 4 4 5 6 6 7 9 10 10 11 11 12 12 13 13 13 13 14 14 15 15 16 16
2 2 2 3 3 4 4 4 4 4 4 4 4 4 4 3 4 4 4 4 5 5 6 6 6 8 9 10 11 12 12 13 13 13 14 14 14 15 15 16 17 17 18
3 3 3 3 3 4 4 4 4 5 5 5 5 5 5 6 6 5 5 6 6 8 8 8 8 9 10 11 13 13 13 13 14 14 15 15 16 16 17 18 18 18 19
6 6 6 5 5 5 5 6 6 6 6 6 7 7 7 6 6 6 7 7 8 9 10 9 9 10 11 12 14 15 15 15 16 16 17 17 17 18 19 19 20 20 21
7 7 7 7 7 7 7 7 7 7 7 8 8 8 8 7 7 8 9 9 10 10 10 10 12 13 13 14 15 16 17 17 18 18 19 19 20 20 21 22 22 23 23
9 8 8 8 8 8 8 8 8 8 9 9 9 9 9 8 9 10 11 11 12 12 12 13 14 14 15 16 17 18 18 19 19 20 22 22 22 23 24 25 26 27 27
11 11 10 10 10 9 9 10 10 10 10 11 11 10 11 11 11 12 12 13 14 14 15 15 16 17 17 18 18 19 20 21 22 22 23 24 25 26 27 28 29 30 31
12 13 13 12 12 12 12 12 12 12 12 12 12 12 13 13 14 14 15 15 16 16 17 18 18 19 20 20 20 21 22 23 24 25 26 27 29 30 31 32 33 33 34
14 14 15 15 15 14 14 14 14 14 15 15 14 14 15 15 15 16 17 17 18 18 19 20 20 21 22 23 23 25 26 27 28 29 30 31 32 32 33 33 34 35 36
16 16 16 16 16 16 16 16 16 16 16 16 17 17 17 18 18 19 19 19 20 20 21 22 23 24 25 26 27 28 29 30 31 32 32 33 34 35 35 36 37 37 38
17 17 17 17 17 17 18 18 17 17 18 18 18 19 19 20 21 21 21 22 22 23 24 24 25 27 28 29 30 31 32 32 33 34 35 36 36 37 37 38 39 40 41
18 18 18 18 19 19 20 20 19 19 19 20 20 21 21 22 23 23 23 24 25 25 26 27 28 30 30 31 32 33 33 34 35 36 37 38 38 38 38 39 41 42 43